Regional Weather Roundup
Issued by NWS Columbia, SC

Home | Current Version | Previous Version | Text Only | Print | Product List | Glossary On
Versions: 1 2 3 4 5 6 7 8 9 10 11 12 13 14 15 16 17 18 19 20 21 22 23 24 25 26 27 28 29 30 31 32 33 34 35 36 37 38 39 40 41 42 43 44 45 46 47 48 49 50
000
ASUS42 KCAE 200510
RWRCAE
REGIONAL WEATHER ROUNDUP
NATIONAL WEATHER SERVICE COLUMBIA SC
1200 AM EST MON NOV 20 2017

NOTE: "FAIR" INDICATES FEW OR NO CLOUDS BELOW 12,000 FEET WITH NO
SIGNIFICANT WEATHER AND/OR OBSTRUCTIONS TO VISIBILITY.

NOT ALL STATIONS ARE QUALITY CONTROLLED BY THE NATIONAL
WEATHER SERVICE. USE DATA WITH CAUTION...ESPECIALLY
DEWPOINT OBSERVATIONS.

SCZ001>056-GAZ040-063>065-077-200600-
...UPSTATE SOUTH CAROLINA...

CITY           SKY/WX    TMP DP  RH WIND       PRES   REMARKS
ANDERSON       CLEAR     34  30  85 CALM      30.12R
LIBERTY        CLEAR     30  29  99 CALM      30.09F
SPARTANBURG    CLEAR     34  28  80 CALM      30.11R
CLEMSON        CLEAR     39  34  82 CALM      30.12R
GREENVILLE     CLEAR     39  27  62 N8        30.11R WCI  33
GREENWOOD      PTCLDY    33  31  92 CALM      30.13F
GREER          CLEAR     41  26  55 N6        30.11S
ROCK HILL      CLEAR     31  27  85 CALM      30.11R
CHESTER        PTCLDY    34  28  80 CALM      30.12S
LAURENS        CLEAR     32  30  93 CALM      30.11S


...CENTRAL SOUTH CAROLINA...

CITY           SKY/WX    TMP DP  RH WIND       PRES   REMARKS
COLUMBIA APT   CLEAR     45  30  55 CALM      30.12R
COLUMBIA OWENS CLEAR     44  27  51 CALM      30.14R
MCENTIRE ANGB  CLEAR     40  28  63 W3        30.12R
ORANGEBURG     PTCLDY    43  34  70 N5        30.13R
SUMTER SHAW    CLEAR     44  29  55 N7        30.10R
NEWBERRY       PTCLDY    34  32  93 CALM      30.16R
AIKEN          FAIR      37  32  81 N6        30.15S WCI  33
BARNWELL         N/A     41  34  75 NW6       30.13R
MANNING        FAIR      41  28  60 MISG      30.12R
CAMDEN         FAIR      37  30  75 CALM      30.13S
LANCASTER      PTCLDY    37  30  75 CALM      30.12S
WINNSBORO      CLEAR     36  30  80 CALM      30.11F


...EASTERN AND COASTAL SOUTH CAROLINA...

CITY           SKY/WX    TMP DP  RH WIND       PRES   REMARKS
MYRTLE BEACH   CLEAR     46  32  58 N9        30.11R
N MYRTLE BCH   PTCLDY    43  34  70 N6        30.10R
CONWAY         FAIR      36  36 100 CALM      30.12R
MARION         FAIR      41  30  65 N3        30.12R
HARTSVILLE     FAIR      39  28  65 N5        30.11S
FLORENCE       CLEAR     43  30  60 N8        30.12R
DARLINGTON     CLEAR     39  28  64 N6        30.12R WCI  35
CHARLESTON APT CLEAR     40  37  89 N8        30.09R WCI  34
MOUNT PLEASANT FAIR      46  37  71 CALM      30.10R
WALTERBORO     CLEAR     37  34  87 NW3       30.12R


...EASTERN GEORGIA...

CITY           SKY/WX    TMP DP  RH WIND       PRES   REMARKS
AUGUSTA BUSH F PTCLDY    42  34  73 N6        30.14R
AUGUSTA DANIEL CLEAR     44  33  65 N6        30.13R
THOMSON        CLEAR     37  33  84 NE5       30.18S WCI  33
WASHINGTON     FAIR      36  32  87 NW3       30.13R
CLAXTON        FAIR      42  37  84 CALM      30.12R
SYLVANIA       CLEAR     43  36  75 N6        30.12R
STATESBORO     CLEAR     43  31  62 NW6       30.13R
SAVANNAH       CLEAR     44  34  67 NW3       30.11R


...SOUTHERN NORTH CAROLINA...

CITY           SKY/WX    TMP DP  RH WIND       PRES   REMARKS
CHARLOTTE      CLEAR     36  28  73 NW5       30.10R WCI  32
MONROE         CLEAR     33  28  81 CALM      30.09F
WADESBORO      PTCLDY    32  27  80 CALM      30.12R
RUTHERFORDTON  CLEAR     30  29  96 NW5       30.11R WCI  25
ASHEVILLE      CLEAR     34  27  75 N13       30.12R WCI  25

$$



USA.gov is the U.S. government's official web portal to all federal, state and local government web resources and services.